Location: Winthrop
(48.4780°N, 120.1850°W)
Time: 02:59:43
(UTC-08:00)

Vanguard 1 Rocket - Pass Details

Date: 28 November 2023
Orbit: 654 x 4218 km, 34.3° (Epoch: 24 February)

Event Time Altitude Azimuth Distance (km) Brightness Sun altitude
Rises 09:37:18 0° 256° (WSW) 5,823 11.3 14.2°
Reaches altitude 10° 09:42:27 10° 247° (WSW) 4,172 10.8 14.7°
Maximum altitude 09:50:23 27° 195° (SSW) 2,132 10.2 15.3°
Drops below altitude 10° 09:55:27 10° 138° (SE) 2,583 11.7 15.7°
Sets 09:57:51 0° 124° (SE) 3,293 11.4 15.9°
